Regional Weather Roundup
Issued by NWS

Home | Current Version | Previous Version | Text Only | Print | Product List | Glossary On
Versions: 1 2 3 4 5 6 7 8 9 10 11 12 13 14 15 16 17 18 19 20 21 22 23 24 25 26 27 28 29 30 31 32 33 34 35 36 37 38 39 40 41 42 43 44 45 46 47 48 49 50
000
ASUS44 KJAN 300510
RWRMS

MISSISSIPPI HOURLY WEATHER ROUNDUP
NATIONAL WEATHER SERVICE JACKSON MS
1200 AM CDT TUE JUN 30 2015

NOTE: "FAIR: INDICATES FEW OR NO CLOUDS BELOW 12,000 FEET WITH NO
SIGNIFICANT WEATHER AND/OR OBSTRUCTIONS TO VISIBILITY.

MSZ001>002-007>008-010>013-018>021-025>028-034>036-300600-
NORTHWEST MISSISSIPPI

CITY           SKY/WX    TMP DP  RH WIND       PRES   REMARKS
CLARKSDALE     FAIR      79  75  89 S5        29.92R
CLEVELAND      FAIR      76  75  96 S7        29.92S
GREENWOOD      MOCLDY    76  71  85 SW3       29.95R
GREENVILLE     CLEAR     80  72  76 SW10      29.93R
OLIVE BRANCH   PTCLDY    70  70 100 W15       29.93F
OXFORD         FAIR      77  68  73 SW8       29.95R
TUNICA         MOCLDY    77  72  83 CALM      29.93R
$$

MSZ003>006-009-014>017-022>024-029>033-037>039-300600-
NORTHEAST MISSISSIPPI

CITY           SKY/WX    TMP DP  RH WIND       PRES   REMARKS
COLUMBUS AFB   MOCLDY    74  70  86 S5        29.94R
CORINTH        TSTM      77  70  78 CALM      29.92R
GOLDN TRIANGLE MOCLDY    75  68  78 SW5       29.95R
STARKVILLE     FAIR      72  70  94 CALM      29.96R
TUPELO         PTCLDY    74  70  87 SW5       29.92S
$$

MSZ040-058-300600-
CENTRAL MISSISSIPPI

CITY           SKY/WX    TMP DP  RH WIND       PRES   REMARKS
JACKSON INTL   CLOUDY    75  67  76 S7        30.00R
JACKSON HAWKNS CLOUDY    76  64  66 S5        30.00R
MERIDIAN KEY   CLOUDY    75  73  93 S6        29.99S
MERIDIAN NAS   CLOUDY    79  73  82 SW6       29.99R
VICKSBURG      CLOUDY    74  67  78 VRB3      29.99R
$$

MSZ059>079-300600-
SOUTH MISSISSIPPI

CITY           SKY/WX    TMP DP  RH WIND       PRES   REMARKS
BROOKHAVEN     FAIR      72  66  83 W7        30.03R
HATTIESBURG    CLOUDY    77  74  90 S3        30.00F
MCCOMB         LGT RAIN  69  69 100 S6        30.03R
NATCHEZ        CLOUDY    68  64  88 S9        30.04S
PINE BELT      CLOUDY    75  73  94 SE5       30.01S
$$

MSZ080>082-300600-
COASTAL MISSISSIPPI

CITY           SKY/WX    TMP DP  RH WIND       PRES   REMARKS
BILOXI         CLEAR     79  76  89 SW5       30.02R
PASCAGOULA     CLEAR     73  72  96 CALM      30.03S
GULFPORT       CLEAR     75  72  90 CALM      30.02R
$$



USA.gov is the U.S. government's official web portal to all federal, state and local government web resources and services.